Weather History for Barcelona, Spain

Change the Weather History Date:

Wednesday, August 13, 2003

  Actual Average Record
Temperature  
Mean Temperature 86 °F -  
Max Temperature 96 °F 78 °F 96 °F (2003)
Min Temperature 77 °F 65 °F 62 °F (2006)
Cooling Degree Days 22    
Growing Degree Days 36 (Base 50)    
Moisture  
Dew Point 61 °F    
Average Humidity 47    
Maximum Humidity 89    
Minimum Humidity 26    
Precipitation  
Precipitation 0.00 in 0.09 in - ()
Sea Level Pressure  
Sea Level Pressure 30.14 in    
Wind  
Wind Speed 5 mph ()    
Max Wind Speed 15 mph    
Max Gust Speed -    
Visibility 6.2 miles    
Events      
Averages and records for this station are not official NWS values.
T = Trace of Precipitation, MM = Missing Value Source: Averaged Metar Reports

Daily Weather History Graph

Daily Weather History Graph

Search for Another Location

Airport:

Trip Planner

Search our weather history database for the weather conditions in past years. The results will help you decide how hot, cold, wet, or windy it might be!

Date:

Astronomy

Aug. 13, 2003 Rise Set
Actual Time 6:58 AM CEST 8:54 PM CEST
Civil Twilight 6:28 AM CEST 9:24 PM CEST
Nautical Twilight 5:51 AM CEST 10:00 PM CEST
Astronomical Twilight 5:12 AM CEST 10:39 PM CEST
Moon 10:05 PM CEST (8/13) 7:59 AM CEST (8/13)
Length of Visible Light 14h 55m
Length of Day
13h 56m
Full, 98% of the Moon is Illuminated
Aug 13
Full
Aug 20
Last Quarter
Aug 27
New
Sep 3
First Quarter
Sep 10
Full

Hourly Weather History & Observations

Time (CEST) Temp. Heat Index Dew Point Humidity Pressure Visibility Wind Dir Wind Speed Gust Speed Precip Events Conditions
12:00 AM 80.6 °F 86.2 °F 75.2 °F 84% 30.18 in - WSW 4.6 mph - N/A   Clear
12:30 AM 78.8 °F - 75.2 °F 89% 30.15 in - WSW 2.3 mph - N/A   Clear
1:00 AM 78.8 °F - 71.6 °F 78% 30.15 in - Variable 3.5 mph - N/A   Clear
1:30 AM 77.0 °F - 66.2 °F 69% 30.15 in - WSW 3.5 mph - N/A   Clear
2:00 AM 78.8 °F - 57.2 °F 47% 30.15 in - NNW 2.3 mph - N/A   Clear
2:30 AM 78.8 °F - 55.4 °F 44% 30.15 in - Calm Calm - N/A   Clear
3:00 AM 78.8 °F - 55.4 °F 44% 30.15 in - North 2.3 mph - N/A   Clear
3:30 AM 80.6 °F - 51.8 °F 37% 30.15 in - Variable 2.3 mph - N/A   Clear
4:00 AM 77.0 °F - 53.6 °F 44% 30.15 in - Calm Calm - N/A   Clear
4:30 AM 78.8 °F - 53.6 °F 42% 30.15 in - Variable 2.3 mph - N/A   Clear
5:00 AM 77.0 °F - 51.8 °F 41% 30.15 in - Variable 1.2 mph - N/A   Clear
5:30 AM 77.0 °F - 51.8 °F 41% 30.15 in - Variable 2.3 mph - N/A   Clear
6:00 AM 77.0 °F - 50.0 °F 39% 30.15 in - North 4.6 mph - N/A   Clear
6:30 AM 77.0 °F - 50.0 °F 39% 30.15 in - North 4.6 mph - N/A   Clear
7:00 AM 77.0 °F - 50.0 °F 39% 30.15 in - North 4.6 mph - N/A   Clear
7:30 AM 77.0 °F - 48.2 °F 36% 30.15 in - NW 6.9 mph - N/A   Clear
8:00 AM 77.0 °F - 50.0 °F 39% 30.15 in - NNW 9.2 mph - N/A   Clear
8:30 AM 78.8 °F - 50.0 °F 36% 30.15 in - NNW 9.2 mph - N/A   Clear
9:00 AM 80.6 °F - 50.0 °F 34% 30.18 in - NNW 9.2 mph - N/A   Clear
9:30 AM 84.2 °F - 51.8 °F 33% 30.18 in - NW 9.2 mph - N/A   Clear
10:00 AM 87.8 °F - 51.8 °F 29% 30.18 in - NNW 9.2 mph - N/A   Clear
10:30 AM 91.4 °F - 51.8 °F 26% 30.18 in - NW 6.9 mph - N/A   Clear
11:00 AM 93.2 °F 91.3 °F 55.4 °F 28% 30.18 in - Variable 2.3 mph - N/A   Clear
11:30 AM 93.2 °F 92.6 °F 59.0 °F 32% 30.18 in - SSW 5.8 mph - N/A   Clear
12:00 PM 96.8 °F 97.1 °F 60.8 °F 30% 30.18 in - South 8.1 mph - N/A   Clear
12:30 PM 93.2 °F 96.2 °F 66.2 °F 41% 30.15 in - SSW 12.7 mph - N/A   Clear
1:00 PM 93.2 °F 94.9 °F 64.4 °F 38% 30.15 in - SSW 13.8 mph - N/A   Clear
1:30 PM 95.0 °F 95.2 °F 60.8 °F 32% 30.15 in - SW 13.8 mph - N/A   Clear
2:00 PM 95.0 °F 94.4 °F 59.0 °F 30% 30.15 in 6.2 mi SW 15.0 mph - N/A   Partly Cloudy
2:30 PM 96.8 °F 96.2 °F 59.0 °F 28% 30.15 in 6.2 mi SW 12.7 mph - N/A   Partly Cloudy
3:00 PM 96.8 °F 97.1 °F 60.8 °F 30% 30.15 in 6.2 mi SW 10.4 mph - N/A   Partly Cloudy
3:30 PM 96.8 °F 98.0 °F 62.6 °F 32% 30.12 in 6.2 mi SW 11.5 mph - N/A   Partly Cloudy
4:00 PM 95.0 °F 97.0 °F 64.4 °F 36% 30.12 in 6.2 mi SW 12.7 mph - N/A   Partly Cloudy
5:00 PM 93.2 °F 102.4 °F 73.4 °F 52% 30.12 in 6.2 mi SW 13.8 mph - N/A   Partly Cloudy
5:30 PM 91.4 °F 100.1 °F 73.4 °F 55% 30.12 in 6.2 mi SW 13.8 mph - N/A   Partly Cloudy
6:00 PM 91.4 °F 102.5 °F 75.2 °F 59% 30.12 in 6.2 mi SW 11.5 mph - N/A   Partly Cloudy
6:30 PM 91.4 °F 100.1 °F 73.4 °F 55% 30.12 in 6.2 mi SW 11.5 mph - N/A   Partly Cloudy
7:00 PM 91.4 °F 96.8 °F 69.8 °F 49% 30.09 in 6.2 mi SW 9.2 mph - N/A   Partly Cloudy
8:30 PM 86.0 °F 88.2 °F 66.2 °F 51% 30.09 in 6.2 mi SW 8.1 mph - N/A   Partly Cloudy
9:00 PM 84.2 °F 87.3 °F 68.0 °F 58% 30.09 in - SW 4.6 mph - N/A   Clear
9:30 PM 84.2 °F 88.4 °F 69.8 °F 62% 30.12 in - SW 4.6 mph - N/A   Clear
10:00 PM 82.4 °F 87.2 °F 71.6 °F 70% 30.12 in - SW 4.6 mph - N/A   Clear
10:30 PM 82.4 °F 88.2 °F 73.4 °F 74% 30.12 in - West 2.3 mph - N/A   Clear
11:00 PM 80.6 °F 85.4 °F 73.4 °F 79% 30.12 in - WSW 3.5 mph - N/A   Clear
11:30 PM 80.6 °F 86.2 °F 75.2 °F 84% 30.12 in - Calm Calm - N/A   Clear